Weather History for KABY - September, 2012

Change the Weather History Date:

Saturday, September 15, 2012

  Actual Average Record
Temperature  
Mean Temperature 79 °F 78 °F  
Max Temperature 90 °F 89 °F 100 °F (1991)
Min Temperature 68 °F 68 °F 53 °F (1969)
Degree Days  
Heating Degree Days 0 0  
Month to date heating degree days 0 0  
Since 1 July heating degree days 0 0  
Cooling Degree Days 14 13  
Month to date cooling degree days 210 220  
Year to date cooling degree days 2486 2193  
Growing Degree Days 28 (Base 50)    
Moisture  
Dew Point 67 °F    
Average Humidity 69    
Maximum Humidity 90    
Minimum Humidity 48    
Precipitation  
Precipitation 0.00 in - 2.21 in (2002)
Month to date precipitation 1.08  
Year to date precipitation 25.12  
Sea Level Pressure  
Sea Level Pressure 30.13 in    
Wind  
Wind Speed 3 mph (East)    
Max Wind Speed 10 mph    
Max Gust Speed 23 mph    
Visibility 10 miles    
Events      
T = Trace of Precipitation, MM = Missing Value Source: NWS Daily Summary

Daily Weather History Graph

Daily Weather History Graph

Search for Another Location

Airport or City:

Trip Planner

Search our weather history database for the weather conditions in past years. The results will help you decide how hot, cold, wet, or windy it might be!

Date:

Astronomy

Sep. 15, 2012 Rise Set
Actual Time 7:21 AM EDT 7:41 PM EDT
Civil Twilight 6:56 AM EDT 8:06 PM EDT
Nautical Twilight 6:28 AM EDT 8:34 PM EDT
Astronomical Twilight 5:59 AM EDT 9:03 PM EDT
Moon 6:49 AM EDT (9/15) 7:15 PM EDT (9/15)
Length of Visible Light 13h 09m
Length of Day
12h 20m
Waning Crescent, 0% of the Moon is Illuminated
Sep 15
Waning Crescent
Sep 15
New
Sep 22
First Quarter
Sep 29
Full
Oct 8
Last Quarter

Hourly Weather History & Observations

Time (EDT) Temp. Heat Index Dew Point Humidity Pressure Visibility Wind Dir Wind Speed Gust Speed Precip Events Conditions
12:53 AM 71.1 °F - 64.9 °F 81% 30.15 in 10.0 mi North 3.5 mph - N/A   Scattered Clouds
1:53 AM 72.0 °F - 64.9 °F 78% 30.15 in 10.0 mi Calm Calm - N/A   Clear
2:53 AM 70.0 °F - 64.9 °F 84% 30.14 in 10.0 mi NE 3.5 mph - N/A   Clear
3:53 AM 70.0 °F - 64.9 °F 84% 30.13 in 10.0 mi Calm Calm - N/A   Clear
4:53 AM 69.1 °F - 64.9 °F 87% 30.13 in 10.0 mi Calm Calm - N/A   Partly Cloudy
5:53 AM 69.1 °F - 66.0 °F 90% 30.13 in 10.0 mi Calm Calm - N/A   Overcast
6:53 AM 70.0 °F - 66.9 °F 90% 30.15 in 10.0 mi NE 4.6 mph - N/A   Overcast
7:53 AM 72.0 °F - 68.0 °F 87% 30.16 in 10.0 mi North 3.5 mph - N/A   Overcast
8:53 AM 75.0 °F - 69.1 °F 82% 30.17 in 10.0 mi ENE 5.8 mph - N/A   Mostly Cloudy
9:53 AM 79.0 °F - 69.1 °F 72% 30.18 in 10.0 mi ENE 9.2 mph - N/A   Clear
10:53 AM 81.0 °F 83.8 °F 68.0 °F 65% 30.17 in 10.0 mi NE 8.1 mph - N/A   Clear
11:49 AM 82.4 °F 86.3 °F 69.8 °F 66% 30.17 in 10.0 mi ESE 6.9 mph - N/A   Mostly Cloudy
11:53 AM 84.0 °F 87.8 °F 69.1 °F 61% 30.16 in 10.0 mi East 5.8 mph - N/A   Scattered Clouds
12:53 PM 84.0 °F 86.5 °F 66.9 °F 56% 30.15 in 10.0 mi ESE 4.6 mph - N/A   Mostly Cloudy
1:53 PM 84.0 °F 86.3 °F 66.0 °F 55% 30.13 in 10.0 mi ESE 5.8 mph - N/A   Mostly Cloudy
1:54 PM 84.2 °F 86.6 °F 66.2 °F 55% 30.13 in 10.0 mi ESE 5.8 mph - N/A   Mostly Cloudy
2:53 PM 87.1 °F 89.2 °F 66.0 °F 49% 30.11 in 10.0 mi Variable 3.5 mph - N/A   Mostly Cloudy
3:53 PM 86.0 °F 87.6 °F 64.9 °F 49% 30.09 in 10.0 mi ESE 4.6 mph - N/A   Mostly Cloudy
4:53 PM 86.0 °F 87.3 °F 64.0 °F 48% 30.08 in 10.0 mi ESE 3.5 mph - N/A   Mostly Cloudy
5:53 PM 87.1 °F 89.2 °F 66.0 °F 49% 30.07 in 10.0 mi ESE 3.5 mph - N/A   Scattered Clouds
6:53 PM 86.0 °F 87.6 °F 64.9 °F 49% 30.07 in 10.0 mi ENE 3.5 mph - N/A   Partly Cloudy
7:53 PM 81.0 °F 83.3 °F 66.9 °F 62% 30.06 in 10.0 mi Calm Calm - N/A   Scattered Clouds
8:53 PM 77.0 °F - 69.1 °F 76% 30.08 in 10.0 mi Calm Calm - N/A   Partly Cloudy
9:53 PM 75.9 °F - 68.0 °F 76% 30.09 in 10.0 mi Calm Calm - N/A   Mostly Cloudy
10:53 PM 75.0 °F - 68.0 °F 79% 30.10 in 10.0 mi Calm Calm - N/A   Partly Cloudy
11:53 PM 73.0 °F - 68.0 °F 84% 30.11 in 10.0 mi Calm Calm - N/A   Clear